Climatologie pour Saint-Brevin les Pins
Jour • Résumé pour mai 12, 2017 Système :  Métrique    Anglais   Mixte
« - 1 jour
+ 1 jour »
Jour Semaine Mois Année Personnalisé
  Maximum : Minimum : Moyenne :
Température sous abri : 17.4 °C 13.3 °C 14.9 °C
Point de rosée : 14.7 °C 12.2 °C 13.2 °C
Humidité : 94 % 83 % 90 %
Vitesse du vent : 22.5 km/h 0.0 km/h 8.7 km/h
Rafale : 30.6 km/h - -
Direction :- - SW
Pression : 1006.0 hPa 995.8 hPa -
Précipitations : 0.0 mm    
Historical Graphs
 
 
Tableau de données pour mai 12, 2017
Heure Tempé Pt rosée Pression Vent Vitesse Rafale Humidité Taux pluie (/hr) Soleil
00:00 13.6 °C 12.6 °C 996.2 hPa South 8.0 km/h 19.3 km/h 94 % 0.0 mm 0 W/m2
00:10 13.5 °C 12.6 °C 996.2 hPa Calm   17.7 km/h 94 % 0.0 mm 0 W/m2
00:15 13.4 °C 12.5 °C 995.8 hPa SSW 9.7 km/h 17.7 km/h 94 % 0.0 mm 0 W/m2
00:20 13.4 °C 12.4 °C 995.8 hPa SSW 4.8 km/h 14.5 km/h 94 % 0.0 mm 0 W/m2
00:25 13.3 °C 12.4 °C 995.8 hPa SW 8.0 km/h 12.9 km/h 94 % 0.0 mm 0 W/m2
00:30 13.3 °C 12.4 °C 995.8 hPa SSW 9.7 km/h 12.9 km/h 94 % 0.0 mm 0 W/m2
00:35 13.3 °C 12.4 °C 995.8 hPa SSE 9.7 km/h 16.1 km/h 94 % 0.0 mm 0 W/m2
00:40 13.3 °C 12.4 °C 996.2 hPa SW 8.0 km/h 17.7 km/h 94 % 0.0 mm 0 W/m2
00:45 13.3 °C 12.4 °C 996.2 hPa SSW 14.5 km/h 17.7 km/h 94 % 0.0 mm 0 W/m2
00:50 13.3 °C 12.3 °C 996.2 hPa SSW 1.6 km/h 16.1 km/h 94 % 0.0 mm 0 W/m2
00:55 13.3 °C 12.3 °C 996.2 hPa SSW 16.1 km/h 16.1 km/h 94 % 0.0 mm 0 W/m2
01:00 13.3 °C 12.4 °C 996.2 hPa South 4.8 km/h 16.1 km/h 94 % 0.0 mm 0 W/m2
01:05 13.3 °C 12.4 °C 995.8 hPa South 16.1 km/h 16.1 km/h 94 % 0.0 mm 0 W/m2
01:10 13.3 °C 12.4 °C 996.2 hPa South 9.7 km/h 16.1 km/h 94 % 0.0 mm 0 W/m2
01:15 13.3 °C 12.3 °C 996.2 hPa South 9.7 km/h 14.5 km/h 94 % 0.0 mm 0 W/m2
01:20 13.3 °C 12.4 °C 996.2 hPa South 9.7 km/h 14.5 km/h 94 % 0.0 mm 0 W/m2
01:25 13.3 °C 12.4 °C 996.2 hPa SSW 3.2 km/h 19.3 km/h 94 % 0.0 mm 0 W/m2
01:30 13.4 °C 12.4 °C 996.2 hPa SSW 9.7 km/h 19.3 km/h 94 % 0.0 mm 0 W/m2
01:35 13.4 °C 12.3 °C 996.2 hPa South 6.4 km/h 16.1 km/h 93 % 0.0 mm 0 W/m2
01:40 13.5 °C 12.4 °C 996.2 hPa SW 8.0 km/h 16.1 km/h 93 % 0.0 mm 0 W/m2
01:45 13.6 °C 12.3 °C 996.5 hPa SSW 9.7 km/h 16.1 km/h 92 % 0.0 mm 0 W/m2
01:50 13.6 °C 12.3 °C 996.5 hPa SSW 8.0 km/h 19.3 km/h 92 % 0.0 mm 0 W/m2
01:55 13.7 °C 12.2 °C 996.5 hPa SSE 6.4 km/h 19.3 km/h 91 % 0.0 mm 0 W/m2
02:00 13.7 °C 12.2 °C 996.5 hPa South 11.3 km/h 19.3 km/h 91 % 0.0 mm 0 W/m2
02:05 13.7 °C 12.2 °C 996.5 hPa SW 11.3 km/h 19.3 km/h 91 % 0.0 mm 0 W/m2
02:10 13.7 °C 12.2 °C 996.5 hPa SSW 16.1 km/h 19.3 km/h 91 % 0.0 mm 0 W/m2
02:15 13.7 °C 12.2 °C 996.5 hPa SSW 8.0 km/h 19.3 km/h 91 % 0.0 mm 0 W/m2
02:20 13.7 °C 12.2 °C 996.5 hPa South 8.0 km/h 20.9 km/h 91 % 0.0 mm 0 W/m2
02:25 13.8 °C 12.5 °C 996.5 hPa South 9.7 km/h 20.9 km/h 92 % 0.0 mm 0 W/m2
02:30 13.9 °C 12.6 °C 996.5 hPa South 8.0 km/h 20.9 km/h 92 % 0.0 mm 0 W/m2
02:35 13.9 °C 12.7 °C 996.5 hPa South 17.7 km/h 20.9 km/h 92 % 0.0 mm 0 W/m2
02:40 14.0 °C 12.7 °C 996.5 hPa South 17.7 km/h 22.5 km/h 92 % 0.0 mm 0 W/m2
02:45 14.0 °C 12.7 °C 996.5 hPa South 8.0 km/h 22.5 km/h 92 % 0.0 mm 0 W/m2
02:50 14.0 °C 12.7 °C 996.2 hPa South 9.7 km/h 20.9 km/h 92 % 0.0 mm 0 W/m2
02:55 14.0 °C 12.7 °C 996.2 hPa SW 14.5 km/h 20.9 km/h 92 % 0.0 mm 0 W/m2
03:00 14.0 °C 12.7 °C 996.2 hPa South 8.0 km/h 20.9 km/h 92 % 0.0 mm 0 W/m2
03:05 14.0 °C 12.7 °C 996.2 hPa South 17.7 km/h 20.9 km/h 92 % 0.0 mm 0 W/m2
03:10 14.1 °C 12.8 °C 996.2 hPa SSW 9.7 km/h 20.9 km/h 92 % 0.0 mm 0 W/m2
03:15 14.1 °C 12.8 °C 996.2 hPa South 8.0 km/h 20.9 km/h 92 % 0.0 mm 0 W/m2
03:20 14.1 °C 12.8 °C 996.2 hPa SSW 12.9 km/h 20.9 km/h 92 % 0.0 mm 0 W/m2
03:25 14.1 °C 12.8 °C 996.2 hPa SSE 14.5 km/h 22.5 km/h 92 % 0.0 mm 0 W/m2
03:30 14.1 °C 12.8 °C 996.2 hPa SSW 9.7 km/h 22.5 km/h 92 % 0.0 mm 0 W/m2
03:40 14.1 °C 12.8 °C 996.2 hPa South 9.7 km/h 19.3 km/h 92 % 0.0 mm 0 W/m2
03:45 14.2 °C 12.9 °C 996.2 hPa SSW 9.7 km/h 17.7 km/h 92 % 0.0 mm 0 W/m2
03:50 14.2 °C 12.9 °C 996.2 hPa South 14.5 km/h 17.7 km/h 92 % 0.0 mm 0 W/m2
03:55 14.2 °C 12.8 °C 996.2 hPa SSW 11.3 km/h 19.3 km/h 91 % 0.0 mm 0 W/m2
04:00 14.2 °C 12.8 °C 996.2 hPa South 11.3 km/h 22.5 km/h 91 % 0.0 mm 0 W/m2
04:05 14.2 °C 12.8 °C 996.2 hPa South 11.3 km/h 22.5 km/h 91 % 0.0 mm 0 W/m2
04:10 14.2 °C 12.8 °C 996.2 hPa SSE 6.4 km/h 24.1 km/h 91 % 0.0 mm 0 W/m2
04:15 14.2 °C 12.8 °C 996.2 hPa SW 12.9 km/h 29.0 km/h 91 % 0.0 mm 0 W/m2
04:20 14.2 °C 12.8 °C 996.2 hPa South 11.3 km/h 29.0 km/h 91 % 0.0 mm 0 W/m2
04:25 14.2 °C 12.7 °C 996.2 hPa SSW 11.3 km/h 20.9 km/h 91 % 0.0 mm 0 W/m2
04:30 14.2 °C 12.7 °C 996.2 hPa SSW 22.5 km/h 22.5 km/h 91 % 0.0 mm 0 W/m2
04:35 14.2 °C 12.7 °C 996.2 hPa SSE 9.7 km/h 24.1 km/h 91 % 0.0 mm 0 W/m2
04:40 14.2 °C 12.7 °C 996.2 hPa South 6.4 km/h 24.1 km/h 91 % 0.0 mm 0 W/m2
04:45 14.2 °C 12.8 °C 996.2 hPa South 9.7 km/h 24.1 km/h 91 % 0.0 mm 0 W/m2
04:50 14.2 °C 12.6 °C 996.2 hPa SSW 4.8 km/h 24.1 km/h 90 % 0.0 mm 0 W/m2
04:55 14.3 °C 12.7 °C 996.5 hPa SSW 14.5 km/h 24.1 km/h 90 % 0.0 mm 0 W/m2
05:00 14.3 °C 12.7 °C 996.5 hPa South 4.8 km/h 24.1 km/h 90 % 0.0 mm 0 W/m2
05:05 14.4 °C 12.8 °C 996.5 hPa SW 8.0 km/h 22.5 km/h 90 % 0.0 mm 0 W/m2
05:10 14.3 °C 12.7 °C 996.5 hPa SSW 11.3 km/h 22.5 km/h 90 % 0.0 mm 0 W/m2
05:15 14.3 °C 12.7 °C 996.5 hPa WSW 6.4 km/h 20.9 km/h 90 % 0.0 mm 0 W/m2
05:20 14.3 °C 12.7 °C 996.5 hPa South 12.9 km/h 20.9 km/h 90 % 0.0 mm 0 W/m2
05:25 14.3 °C 12.7 °C 996.5 hPa SSW 11.3 km/h 20.9 km/h 90 % 0.0 mm 0 W/m2
05:30 14.3 °C 12.7 °C 996.5 hPa South 9.7 km/h 22.5 km/h 90 % 0.0 mm 0 W/m2
05:35 14.3 °C 12.7 °C 996.5 hPa SW 6.4 km/h 22.5 km/h 90 % 0.0 mm 0 W/m2
05:40 14.3 °C 12.7 °C 996.5 hPa SSW 6.4 km/h 17.7 km/h 90 % 0.0 mm 0 W/m2
05:45 14.2 °C 12.6 °C 996.5 hPa SW 9.7 km/h 17.7 km/h 90 % 0.0 mm 0 W/m2
05:50 14.2 °C 12.6 °C 996.5 hPa SSW 9.7 km/h 20.9 km/h 90 % 0.0 mm 0 W/m2
05:55 14.3 °C 12.7 °C 996.5 hPa SSW 11.3 km/h 20.9 km/h 90 % 0.0 mm 0 W/m2
06:00 14.2 °C 12.6 °C 996.5 hPa SSW 8.0 km/h 17.7 km/h 90 % 0.0 mm 0 W/m2
06:05 14.2 °C 12.6 °C 996.8 hPa SSW 8.0 km/h 17.7 km/h 90 % 0.0 mm 0 W/m2
06:10 14.2 °C 12.7 °C 996.8 hPa SSW 1.6 km/h 17.7 km/h 91 % 0.0 mm 0 W/m2
06:15 14.1 °C 12.7 °C 996.5 hPa SSW 8.0 km/h 19.3 km/h 91 % 0.0 mm 0 W/m2
06:20 14.1 °C 12.7 °C 996.8 hPa SW 1.6 km/h 19.3 km/h 91 % 0.0 mm 0 W/m2
06:25 14.1 °C 12.6 °C 996.8 hPa West 3.2 km/h 20.9 km/h 91 % 0.0 mm 0 W/m2
06:30 14.1 °C 12.6 °C 996.8 hPa WSW 8.0 km/h 20.9 km/h 91 % 0.0 mm 0 W/m2
06:35 14.1 °C 12.8 °C 996.8 hPa SSW 6.4 km/h 17.7 km/h 92 % 0.0 mm 0 W/m2
06:40 14.1 °C 12.8 °C 996.8 hPa SW 8.0 km/h 17.7 km/h 92 % 0.0 mm 0 W/m2
06:45 14.1 °C 12.7 °C 996.8 hPa South 14.5 km/h 19.3 km/h 91 % 0.0 mm 0 W/m2
06:50 14.2 °C 12.9 °C 996.8 hPa SW 3.2 km/h 19.3 km/h 92 % 0.0 mm 0 W/m2
06:55 14.2 °C 12.9 °C 996.8 hPa SW 3.2 km/h 16.1 km/h 92 % 0.0 mm 5 W/m2
07:00 14.2 °C 12.9 °C 996.8 hPa SSW 6.4 km/h 16.1 km/h 92 % 0.0 mm 5 W/m2
07:05 14.2 °C 12.9 °C 996.8 hPa South 9.7 km/h 16.1 km/h 92 % 0.0 mm 5 W/m2
07:10 14.2 °C 12.9 °C 997.2 hPa WSW 1.6 km/h 19.3 km/h 92 % 0.0 mm 11 W/m2
07:15 14.2 °C 12.9 °C 997.2 hPa SSW 4.8 km/h 19.3 km/h 92 % 0.0 mm 11 W/m2
07:20 14.2 °C 12.9 °C 997.2 hPa SSW 11.3 km/h 16.1 km/h 92 % 0.0 mm 12 W/m2
07:25 14.2 °C 12.9 °C 997.2 hPa South 8.0 km/h 16.1 km/h 92 % 0.0 mm 12 W/m2
07:30 14.2 °C 12.9 °C 997.2 hPa SW 9.7 km/h 19.3 km/h 92 % 0.0 mm 16 W/m2
07:35 14.3 °C 13.0 °C 997.2 hPa South 9.7 km/h 19.3 km/h 92 % 0.0 mm 16 W/m2
07:40 14.3 °C 12.8 °C 997.5 hPa South 12.9 km/h 14.5 km/h 91 % 0.0 mm 21 W/m2
07:45 14.3 °C 13.0 °C 997.5 hPa South 9.7 km/h 14.5 km/h 92 % 0.0 mm 26 W/m2
07:50 14.3 °C 13.1 °C 997.5 hPa SSW 3.2 km/h 16.1 km/h 92 % 0.0 mm 40 W/m2
07:55 14.3 °C 13.1 °C 997.5 hPa SSE 8.0 km/h 16.1 km/h 92 % 0.0 mm 51 W/m2
08:00 14.4 °C 13.1 °C 997.5 hPa South 9.7 km/h 17.7 km/h 92 % 0.0 mm 69 W/m2
08:05 14.4 °C 13.2 °C 997.5 hPa South 9.7 km/h 17.7 km/h 92 % 0.0 mm 56 W/m2
08:10 14.5 °C 13.2 °C 997.9 hPa SSE 9.7 km/h 16.1 km/h 92 % 0.0 mm 53 W/m2
08:15 14.5 °C 13.2 °C 997.9 hPa SSW 9.7 km/h 16.1 km/h 92 % 0.0 mm 53 W/m2
08:20 14.5 °C 13.2 °C 997.9 hPa SSW 6.4 km/h 16.1 km/h 92 % 0.0 mm 54 W/m2
08:25 14.5 °C 13.2 °C 997.9 hPa SSW 16.1 km/h 19.3 km/h 92 % 0.0 mm 49 W/m2
08:30 14.5 °C 13.2 °C 997.9 hPa SSW 9.7 km/h 19.3 km/h 92 % 0.0 mm 76 W/m2
08:35 14.6 °C 13.3 °C 997.9 hPa South 4.8 km/h 19.3 km/h 92 % 0.0 mm 93 W/m2
08:40 14.7 °C 13.4 °C 997.9 hPa WSW 4.8 km/h 19.3 km/h 92 % 0.0 mm 63 W/m2
08:45 14.7 °C 13.2 °C 997.9 hPa SW 11.3 km/h 19.3 km/h 91 % 0.0 mm 76 W/m2
08:50 14.7 °C 13.2 °C 997.9 hPa SSW 9.7 km/h 19.3 km/h 91 % 0.0 mm 102 W/m2
08:55 14.8 °C 13.3 °C 997.9 hPa SW 6.4 km/h 19.3 km/h 91 % 0.0 mm 81 W/m2
09:00 14.7 °C 13.3 °C 997.9 hPa SW 11.3 km/h 20.9 km/h 91 % 0.0 mm 79 W/m2
09:05 14.8 °C 13.3 °C 998.2 hPa SW 3.2 km/h 20.9 km/h 91 % 0.0 mm 105 W/m2
09:10 14.8 °C 13.4 °C 998.2 hPa SW 3.2 km/h 19.3 km/h 91 % 0.0 mm 104 W/m2
09:15 14.8 °C 13.2 °C 998.2 hPa SSW 11.3 km/h 17.7 km/h 90 % 0.0 mm 100 W/m2
09:20 14.9 °C 13.3 °C 998.2 hPa Calm   19.3 km/h 90 % 0.0 mm 102 W/m2
09:25 14.9 °C 13.3 °C 998.2 hPa SSW 14.5 km/h 19.3 km/h 90 % 0.0 mm 91 W/m2
09:30 14.9 °C 13.3 °C 998.2 hPa WSW 9.7 km/h 20.9 km/h 90 % 0.0 mm 134 W/m2
09:35 14.9 °C 13.3 °C 998.2 hPa SW 3.2 km/h 20.9 km/h 90 % 0.0 mm 107 W/m2
09:40 15.0 °C 13.4 °C 998.5 hPa SSW 11.3 km/h 24.1 km/h 90 % 0.0 mm 127 W/m2
09:45 15.0 °C 13.2 °C 998.5 hPa SSW 8.0 km/h 24.1 km/h 89 % 0.0 mm 93 W/m2
09:50 15.0 °C 13.2 °C 998.5 hPa SSW 11.3 km/h 20.9 km/h 89 % 0.0 mm 88 W/m2
09:55 15.1 °C 13.3 °C 998.5 hPa SSW 8.0 km/h 22.5 km/h 89 % 0.0 mm 128 W/m2
10:00 15.1 °C 13.3 °C 998.5 hPa WSW 8.0 km/h 22.5 km/h 89 % 0.0 mm 144 W/m2
10:05 15.2 °C 13.4 °C 998.5 hPa SW 14.5 km/h 20.9 km/h 89 % 0.0 mm 167 W/m2
10:10 15.2 °C 13.4 °C 998.5 hPa SSW 9.7 km/h 22.5 km/h 89 % 0.0 mm 260 W/m2
10:15 15.4 °C 13.6 °C 998.5 hPa South 19.3 km/h 22.5 km/h 89 % 0.0 mm 220 W/m2
10:20 15.6 °C 13.6 °C 998.9 hPa SSW 6.4 km/h 19.3 km/h 88 % 0.0 mm 165 W/m2
10:25 15.5 °C 13.5 °C 998.9 hPa South 6.4 km/h 19.3 km/h 88 % 0.0 mm 169 W/m2
10:30 15.4 °C 13.5 °C 998.9 hPa SW 12.9 km/h 20.9 km/h 88 % 0.0 mm 207 W/m2
10:35 15.4 °C 13.5 °C 998.9 hPa WSW 8.0 km/h 20.9 km/h 88 % 0.0 mm 232 W/m2
10:45 15.5 °C 13.5 °C 998.9 hPa WSW 6.4 km/h 16.1 km/h 88 % 0.0 mm 251 W/m2
10:50 15.7 °C 13.7 °C 998.9 hPa WSW 8.0 km/h 25.7 km/h 88 % 0.0 mm 378 W/m2
10:55 16.0 °C 14.0 °C 999.2 hPa SW 3.2 km/h 25.7 km/h 88 % 0.0 mm 359 W/m2
11:00 16.2 °C 14.0 °C 999.2 hPa SSW 6.4 km/h 22.5 km/h 87 % 0.0 mm 290 W/m2
11:05 16.1 °C 13.7 °C 999.2 hPa WSW 11.3 km/h 19.3 km/h 86 % 0.0 mm 360 W/m2
11:10 16.1 °C 13.7 °C 999.2 hPa WSW 6.4 km/h 20.9 km/h 86 % 0.0 mm 260 W/m2
11:15 16.0 °C 13.7 °C 999.2 hPa West 6.4 km/h 20.9 km/h 86 % 0.0 mm 357 W/m2
11:20 16.1 °C 13.9 °C 999.2 hPa SW 11.3 km/h 19.3 km/h 87 % 0.0 mm 346 W/m2
11:25 16.0 °C 13.8 °C 999.5 hPa South 3.2 km/h 19.3 km/h 87 % 0.0 mm 568 W/m2
11:30 16.3 °C 14.1 °C 999.5 hPa WNW 6.4 km/h 19.3 km/h 87 % 0.0 mm 376 W/m2
11:35 16.1 °C 13.8 °C 999.5 hPa WSW 8.0 km/h 22.5 km/h 86 % 0.0 mm 343 W/m2
11:40 16.3 °C 14.1 °C 999.5 hPa SSW 6.4 km/h 22.5 km/h 87 % 0.0 mm 445 W/m2
11:45 16.2 °C 13.9 °C 999.5 hPa West 8.0 km/h 17.7 km/h 86 % 0.0 mm 524 W/m2
11:50 16.3 °C 14.2 °C 999.5 hPa SSW 3.2 km/h 20.9 km/h 87 % 0.0 mm 469 W/m2
11:55 16.6 °C 14.2 °C 999.9 hPa West 6.4 km/h 20.9 km/h 86 % 0.0 mm 355 W/m2
12:00 16.3 °C 13.8 °C 999.9 hPa WSW 1.6 km/h 20.9 km/h 85 % 0.0 mm 364 W/m2
12:05 16.2 °C 13.9 °C 999.9 hPa SSW 16.1 km/h 25.7 km/h 86 % 0.0 mm 420 W/m2
12:10 16.6 °C 14.3 °C 999.9 hPa WSW 22.5 km/h 27.4 km/h 86 % 0.0 mm 501 W/m2
12:15 17.1 °C 14.5 °C 999.9 hPa SW 3.2 km/h 27.4 km/h 85 % 0.0 mm 749 W/m2
12:20 16.7 °C 14.0 °C 999.9 hPa WSW 4.8 km/h 27.4 km/h 84 % 0.0 mm 476 W/m2
12:25 16.7 °C 14.2 °C 999.9 hPa SW 17.7 km/h 27.4 km/h 85 % 0.0 mm 538 W/m2
12:30 16.9 °C 14.4 °C 999.9 hPa South 8.0 km/h 24.1 km/h 85 % 0.0 mm 561 W/m2
12:35 17.1 °C 14.3 °C 999.9 hPa WNW 12.9 km/h 24.1 km/h 84 % 0.0 mm 686 W/m2
12:40 17.3 °C 14.7 °C 1000.2 hPa WSW 14.5 km/h 20.9 km/h 85 % 0.0 mm 496 W/m2
12:45 17.3 °C 14.4 °C 1000.2 hPa West 11.3 km/h 24.1 km/h 83 % 0.0 mm 610 W/m2
12:50 17.0 °C 14.1 °C 1000.2 hPa South 8.0 km/h 24.1 km/h 83 % 0.0 mm 519 W/m2
12:55 16.7 °C 14.0 °C 1000.2 hPa WSW 11.3 km/h 20.9 km/h 84 % 0.0 mm 580 W/m2
13:00 16.8 °C 14.1 °C 1000.2 hPa South 8.0 km/h 27.4 km/h 84 % 0.0 mm 434 W/m2
13:05 17.1 °C 14.3 °C 1000.6 hPa West 11.3 km/h 27.4 km/h 84 % 0.0 mm 536 W/m2
13:10 16.6 °C 13.8 °C 1000.6 hPa SW 16.1 km/h 29.0 km/h 84 % 0.0 mm 403 W/m2
13:15 16.3 °C 13.8 °C 1000.6 hPa SW 6.4 km/h 29.0 km/h 85 % 0.0 mm 362 W/m2
13:20 16.3 °C 14.2 °C 1000.6 hPa SSW 8.0 km/h 20.9 km/h 87 % 0.0 mm 380 W/m2
13:25 16.4 °C 14.1 °C 1000.6 hPa SW 4.8 km/h 17.7 km/h 86 % 0.0 mm 476 W/m2
13:30 16.7 °C 14.3 °C 1000.6 hPa WSW 8.0 km/h 20.9 km/h 86 % 0.0 mm 394 W/m2
13:35 16.5 °C 14.1 °C 1000.6 hPa SW 6.4 km/h 20.9 km/h 86 % 0.0 mm 504 W/m2
13:40 16.7 °C 14.2 °C 1000.9 hPa WSW 4.8 km/h 19.3 km/h 85 % 0.0 mm 441 W/m2
13:45 16.8 °C 14.5 °C 1000.9 hPa SW 9.7 km/h 19.3 km/h 86 % 0.0 mm 673 W/m2
13:50 17.2 °C 14.5 °C 1000.9 hPa SW 11.3 km/h 24.1 km/h 84 % 0.0 mm 752 W/m2
13:55 17.4 °C 14.5 °C 1000.9 hPa SW 11.3 km/h 24.1 km/h 83 % 0.0 mm 503 W/m2
14:00 17.1 °C 14.1 °C 1000.9 hPa WSW 6.4 km/h 24.1 km/h 83 % 0.0 mm 476 W/m2
14:05 16.8 °C 14.1 °C 1000.9 hPa SSW 9.7 km/h 27.4 km/h 84 % 0.0 mm 438 W/m2
14:10 16.5 °C 13.8 °C 1000.9 hPa WSW 6.4 km/h 27.4 km/h 84 % 0.0 mm 364 W/m2
14:15 16.3 °C 14.0 °C 1000.9 hPa WSW 8.0 km/h 24.1 km/h 86 % 0.0 mm 431 W/m2
14:20 16.4 °C 14.4 °C 1001.2 hPa SSW 16.1 km/h 24.1 km/h 88 % 0.0 mm 348 W/m2
14:25 16.1 °C 14.1 °C 1001.2 hPa SW 16.1 km/h 25.7 km/h 88 % 0.0 mm 260 W/m2
14:30 15.8 °C 14.1 °C 1001.2 hPa SSW 9.7 km/h 25.7 km/h 90 % 0.0 mm 243 W/m2
14:35 15.7 °C 14.2 °C 1000.9 hPa WSW 6.4 km/h 22.5 km/h 91 % 0.0 mm 269 W/m2
14:40 15.7 °C 14.3 °C 1001.2 hPa SW 11.3 km/h 22.5 km/h 91 % 0.0 mm 272 W/m2
14:45 15.6 °C 14.1 °C 1001.2 hPa SSW 8.0 km/h 20.9 km/h 91 % 0.0 mm 262 W/m2
14:50 15.4 °C 13.8 °C 1001.2 hPa WSW 16.1 km/h 25.7 km/h 90 % 0.0 mm 134 W/m2
14:55 15.3 °C 13.6 °C 1001.2 hPa West 19.3 km/h 25.7 km/h 90 % 0.0 mm 336 W/m2
15:00 15.8 °C 14.1 °C 1001.2 hPa SSW 11.3 km/h 22.5 km/h 90 % 0.0 mm 436 W/m2
15:10 16.0 °C 14.0 °C 1001.2 hPa South 12.9 km/h 29.0 km/h 88 % 0.0 mm 452 W/m2
15:15 16.1 °C 13.9 °C 1001.2 hPa WSW 16.1 km/h 25.7 km/h 87 % 0.0 mm 531 W/m2
15:20 16.3 °C 14.0 °C 1001.2 hPa SSW 11.3 km/h 25.7 km/h 86 % 0.0 mm 671 W/m2
15:25 16.7 °C 14.3 °C 1001.2 hPa WSW 14.5 km/h 25.7 km/h 86 % 0.0 mm 823 W/m2
15:30 16.7 °C 14.2 °C 1001.2 hPa WSW 4.8 km/h 30.6 km/h 85 % 0.0 mm 960 W/m2
15:35 16.9 °C 14.6 °C 1001.2 hPa West 8.0 km/h 30.6 km/h 86 % 0.0 mm 956 W/m2
15:40 16.8 °C 14.1 °C 1001.2 hPa WSW 4.8 km/h 27.4 km/h 84 % 0.0 mm 429 W/m2
15:45 16.1 °C 13.4 °C 1001.6 hPa SW 6.4 km/h 29.0 km/h 84 % 0.0 mm 244 W/m2
15:50 15.7 °C 13.5 °C 1001.6 hPa WSW 4.8 km/h 29.0 km/h 87 % 0.0 mm 294 W/m2
15:55 15.6 °C 13.4 °C 1001.6 hPa SW 9.7 km/h 24.1 km/h 87 % 0.0 mm 225 W/m2
16:00 15.4 °C 13.2 °C 1001.6 hPa SW 9.7 km/h 25.7 km/h 87 % 0.0 mm 195 W/m2
16:05 15.2 °C 13.2 °C 1001.6 hPa SSW 3.2 km/h 25.7 km/h 88 % 0.0 mm 188 W/m2
16:10 15.1 °C 13.3 °C 1001.6 hPa SSW 3.2 km/h 20.9 km/h 89 % 0.0 mm 162 W/m2
16:15 15.2 °C 13.5 °C 1001.6 hPa West 9.7 km/h 20.9 km/h 90 % 0.0 mm 290 W/m2
16:20 15.2 °C 13.5 °C 1001.6 hPa SW 8.0 km/h 20.9 km/h 90 % 0.0 mm 301 W/m2
16:25 15.3 °C 13.5 °C 1001.6 hPa South 12.9 km/h 19.3 km/h 89 % 0.0 mm 269 W/m2
16:30 15.2 °C 13.4 °C 1001.6 hPa WSW 3.2 km/h 19.3 km/h 89 % 0.0 mm 301 W/m2
16:35 15.4 °C 13.6 °C 1001.6 hPa SSW 8.0 km/h 17.7 km/h 89 % 0.0 mm 446 W/m2
16:40 16.1 °C 14.2 °C 1001.6 hPa WSW 14.5 km/h 24.1 km/h 89 % 0.0 mm 865 W/m2
16:45 16.2 °C 14.1 °C 1001.6 hPa West 12.9 km/h 24.1 km/h 87 % 0.0 mm 501 W/m2
16:50 16.0 °C 13.5 °C 1001.6 hPa SSW 20.9 km/h 25.7 km/h 85 % 0.0 mm 373 W/m2
16:55 15.9 °C 13.7 °C 1001.6 hPa WSW 8.0 km/h 25.7 km/h 87 % 0.0 mm 403 W/m2
17:00 15.8 °C 13.6 °C 1001.6 hPa SW 12.9 km/h 24.1 km/h 87 % 0.0 mm 341 W/m2
17:05 15.8 °C 13.6 °C 1001.6 hPa West 14.5 km/h 24.1 km/h 87 % 0.0 mm 338 W/m2
17:10 15.7 °C 13.5 °C 1001.6 hPa WSW 11.3 km/h 24.1 km/h 87 % 0.0 mm 339 W/m2
17:15 15.8 °C 13.7 °C 1001.9 hPa WSW 11.3 km/h 24.1 km/h 87 % 0.0 mm 360 W/m2
17:20 15.8 °C 13.6 °C 1001.9 hPa West 20.9 km/h 22.5 km/h 87 % 0.0 mm 322 W/m2
17:25 15.9 °C 13.8 °C 1001.9 hPa WSW 11.3 km/h 25.7 km/h 87 % 0.0 mm 353 W/m2
17:30 15.8 °C 13.5 °C 1001.9 hPa WSW 9.7 km/h 25.7 km/h 86 % 0.0 mm 283 W/m2
17:35 15.8 °C 13.6 °C 1001.9 hPa WSW 11.3 km/h 22.5 km/h 87 % 0.0 mm 357 W/m2
17:40 15.9 °C 13.8 °C 1001.9 hPa West 11.3 km/h 19.3 km/h 87 % 0.0 mm 352 W/m2
17:45 16.2 °C 14.0 °C 1001.9 hPa SSW 1.6 km/h 19.3 km/h 87 % 0.0 mm 327 W/m2
17:50 16.2 °C 14.1 °C 1001.9 hPa SSW 8.0 km/h 19.3 km/h 87 % 0.0 mm 309 W/m2
17:55 16.1 °C 13.7 °C 1001.9 hPa SW 8.0 km/h 24.1 km/h 86 % 0.0 mm 301 W/m2
18:00 15.9 °C 13.8 °C 1001.9 hPa WSW 12.9 km/h 24.1 km/h 87 % 0.0 mm 311 W/m2
18:05 16.2 °C 14.0 °C 1001.9 hPa SSW 1.6 km/h 19.3 km/h 87 % 0.0 mm 357 W/m2
18:10 16.2 °C 13.9 °C 1002.3 hPa WSW 4.8 km/h 20.9 km/h 86 % 0.0 mm 529 W/m2
18:15 16.4 °C 14.0 °C 1002.3 hPa West 6.4 km/h 22.5 km/h 86 % 0.0 mm 239 W/m2
18:25 16.0 °C 13.8 °C 1002.3 hPa South 6.4 km/h 16.1 km/h 87 % 0.0 mm 359 W/m2
18:30 16.2 °C 13.8 °C 1002.3 hPa WSW 11.3 km/h 19.3 km/h 86 % 0.0 mm 401 W/m2
18:35 16.4 °C 14.0 °C 1002.3 hPa WSW 9.7 km/h 24.1 km/h 86 % 0.0 mm 378 W/m2
18:40 16.1 °C 13.7 °C 1002.3 hPa SSW 6.4 km/h 24.1 km/h 86 % 0.0 mm 174 W/m2
18:45 15.7 °C 13.5 °C 1002.3 hPa South 4.8 km/h 20.9 km/h 87 % 0.0 mm 207 W/m2
18:55 15.3 °C 13.3 °C 1002.6 hPa SSW 1.6 km/h 19.3 km/h 88 % 0.0 mm 134 W/m2
19:00 15.2 °C 13.4 °C 1002.6 hPa SSW 9.7 km/h 17.7 km/h 89 % 0.0 mm 178 W/m2
19:05 15.2 °C 13.4 °C 1002.6 hPa SW 11.3 km/h 19.3 km/h 89 % 0.0 mm 185 W/m2
19:10 15.2 °C 13.4 °C 1002.6 hPa West 8.0 km/h 19.3 km/h 89 % 0.0 mm 158 W/m2
19:15 15.3 °C 13.5 °C 1002.6 hPa WSW 17.7 km/h 17.7 km/h 89 % 0.0 mm 149 W/m2
19:20 15.2 °C 13.4 °C 1002.6 hPa WSW 8.0 km/h 17.7 km/h 89 % 0.0 mm 125 W/m2
19:25 15.2 °C 13.4 °C 1002.6 hPa WSW 4.8 km/h 17.7 km/h 89 % 0.0 mm 113 W/m2
19:30 15.2 °C 13.4 °C 1002.6 hPa SSW 6.4 km/h 17.7 km/h 89 % 0.0 mm 111 W/m2
19:35 15.1 °C 13.3 °C 1002.6 hPa SSW 3.2 km/h 12.9 km/h 89 % 0.0 mm 105 W/m2
19:40 15.0 °C 13.2 °C 1002.9 hPa WSW 9.7 km/h 17.7 km/h 89 % 0.0 mm 91 W/m2
19:45 14.9 °C 13.3 °C 1002.9 hPa SSW 9.7 km/h 17.7 km/h 90 % 0.0 mm 86 W/m2
19:50 14.9 °C 13.3 °C 1002.9 hPa West 3.2 km/h 12.9 km/h 90 % 0.0 mm 77 W/m2
19:55 14.9 °C 13.3 °C 1002.9 hPa West 8.0 km/h 12.9 km/h 90 % 0.0 mm 74 W/m2
20:00 14.8 °C 13.2 °C 1002.9 hPa WSW 6.4 km/h 16.1 km/h 90 % 0.0 mm 79 W/m2
20:05 14.8 °C 13.2 °C 1002.9 hPa WSW 1.6 km/h 16.1 km/h 90 % 0.0 mm 72 W/m2
20:10 14.8 °C 13.4 °C 1003.3 hPa SW 9.7 km/h 16.1 km/h 91 % 0.0 mm 65 W/m2
20:15 14.8 °C 13.4 °C 1003.3 hPa SW 3.2 km/h 16.1 km/h 91 % 0.0 mm 53 W/m2
20:20 14.8 °C 13.3 °C 1003.3 hPa SW 12.9 km/h 16.1 km/h 91 % 0.0 mm 46 W/m2
20:25 14.7 °C 13.3 °C 1003.6 hPa SW 4.8 km/h 16.1 km/h 91 % 0.0 mm 40 W/m2
20:30 14.7 °C 13.3 °C 1003.6 hPa SW 9.7 km/h 19.3 km/h 91 % 0.0 mm 39 W/m2
20:35 14.7 °C 13.2 °C 1003.6 hPa WSW 4.8 km/h 19.3 km/h 91 % 0.0 mm 46 W/m2
20:40 14.7 °C 13.2 °C 1003.6 hPa SSW 8.0 km/h 17.7 km/h 91 % 0.0 mm 49 W/m2
20:45 14.7 °C 13.2 °C 1003.6 hPa West 3.2 km/h 16.1 km/h 91 % 0.0 mm 40 W/m2
20:50 14.7 °C 13.2 °C 1003.6 hPa SW 3.2 km/h 19.3 km/h 91 % 0.0 mm 35 W/m2
20:55 14.6 °C 13.1 °C 1003.6 hPa SW 8.0 km/h 19.3 km/h 91 % 0.0 mm 23 W/m2
21:00 14.5 °C 13.0 °C 1003.9 hPa West 9.7 km/h 19.3 km/h 91 % 0.0 mm 12 W/m2
21:05 14.4 °C 12.9 °C 1003.9 hPa SW 6.4 km/h 19.3 km/h 91 % 0.0 mm 12 W/m2
21:10 14.3 °C 13.0 °C 1003.9 hPa WSW 6.4 km/h 16.1 km/h 92 % 0.0 mm 11 W/m2
21:15 14.2 °C 12.9 °C 1003.9 hPa SW 8.0 km/h 16.1 km/h 92 % 0.0 mm 11 W/m2
21:20 14.1 °C 12.8 °C 1003.9 hPa West 16.1 km/h 16.1 km/h 92 % 0.0 mm 9 W/m2
21:25 14.0 °C 12.9 °C 1003.9 hPa WSW 4.8 km/h 16.1 km/h 93 % 0.0 mm 5 W/m2
21:30 14.0 °C 12.9 °C 1004.3 hPa SSW 8.0 km/h 14.5 km/h 93 % 0.0 mm 0 W/m2
21:35 13.9 °C 12.8 °C 1004.3 hPa WSW 9.7 km/h 14.5 km/h 93 % 0.0 mm 0 W/m2
21:40 13.8 °C 12.7 °C 1004.3 hPa SSW 8.0 km/h 12.9 km/h 93 % 0.0 mm 0 W/m2
21:45 13.8 °C 12.7 °C 1004.6 hPa SW 8.0 km/h 16.1 km/h 93 % 0.0 mm 0 W/m2
21:50 13.7 °C 12.6 °C 1004.6 hPa SW 6.4 km/h 16.1 km/h 93 % 0.0 mm 0 W/m2
21:55 13.7 °C 12.6 °C 1004.6 hPa SW 4.8 km/h 16.1 km/h 93 % 0.0 mm 0 W/m2
22:00 13.7 °C 12.6 °C 1004.6 hPa SSW 8.0 km/h 16.1 km/h 93 % 0.0 mm 0 W/m2
22:05 13.7 °C 12.6 °C 1004.6 hPa SSW 4.8 km/h 16.1 km/h 93 % 0.0 mm 0 W/m2
22:10 13.7 °C 12.6 °C 1005.0 hPa WSW 8.0 km/h 16.1 km/h 93 % 0.0 mm 0 W/m2
22:15 13.7 °C 12.6 °C 1005.0 hPa SW 4.8 km/h 14.5 km/h 93 % 0.0 mm 0 W/m2
22:20 13.8 °C 12.7 °C 1005.0 hPa West 3.2 km/h 22.5 km/h 93 % 0.0 mm 0 W/m2
22:25 13.7 °C 12.6 °C 1005.0 hPa SW 3.2 km/h 22.5 km/h 93 % 0.0 mm 0 W/m2
22:30 13.7 °C 12.6 °C 1005.3 hPa SW 3.2 km/h 14.5 km/h 93 % 0.0 mm 0 W/m2
22:35 13.7 °C 12.6 °C 1005.3 hPa WSW 1.6 km/h 14.5 km/h 93 % 0.0 mm 0 W/m2
22:40 13.8 °C 12.7 °C 1005.3 hPa SW 4.8 km/h 12.9 km/h 93 % 0.0 mm 0 W/m2
22:50 13.8 °C 12.7 °C 1005.3 hPa SW 6.4 km/h 6.4 km/h 93 % 0.0 mm 0 W/m2
23:00 14.1 °C 12.9 °C 1005.6 hPa SW 6.4 km/h 12.9 km/h 93 % 0.0 mm 0 W/m2
23:05 14.1 °C 12.8 °C 1005.6 hPa Calm   12.9 km/h 92 % 0.0 mm 0 W/m2
23:10 14.1 °C 12.8 °C 1005.6 hPa WSW 3.2 km/h 12.9 km/h 92 % 0.0 mm 0 W/m2
23:15 14.1 °C 12.8 °C 1005.6 hPa West 11.3 km/h 12.9 km/h 92 % 0.0 mm 0 W/m2
23:20 14.1 °C 12.8 °C 1005.6 hPa WSW 4.8 km/h 12.9 km/h 92 % 0.0 mm 0 W/m2
23:25 14.1 °C 12.8 °C 1005.6 hPa WSW 1.6 km/h 9.7 km/h 92 % 0.0 mm 0 W/m2
23:30 14.1 °C 12.8 °C 1005.6 hPa SW 3.2 km/h 11.3 km/h 92 % 0.0 mm 0 W/m2
23:35 14.1 °C 12.8 °C 1006.0 hPa West 1.6 km/h 14.5 km/h 92 % 0.0 mm 0 W/m2
23:40 14.1 °C 12.8 °C 1006.0 hPa SW 11.3 km/h 14.5 km/h 92 % 0.0 mm 0 W/m2
23:45 14.1 °C 12.8 °C 1006.0 hPa SW 8.0 km/h 14.5 km/h 92 % 0.0 mm 0 W/m2
23:50 14.1 °C 12.8 °C 1006.0 hPa SSW 1.6 km/h 14.5 km/h 92 % 0.0 mm 0 W/m2
23:55 14.1 °C 12.8 °C 1006.0 hPa SW 11.3 km/h 14.5 km/h 92 % 0.0 mm 0 W/m2
Avec l'autorisation de Weather Underground - 1.75 mb